This is the latest recevied weather packets stored in our database for station/object DN9EL-10. If no packets are shown the sender has not sent any weather packets the latest 10 day(s).
| Time | Temp. | Humidity | Pressure | Rain* | Wind** | Luminosity | Snow |
|---|---|---|---|---|---|---|---|
| 1777661304 | 18.89° C | 36% | 971.4 hPa | - | - | - | - |
| 1777660404 | 19.44° C | 34% | 971.4 hPa | - | - | - | - |
| 1777659503 | 20° C | 33% | 971.4 hPa | - | - | - | - |
| 1777658603 | 20.56° C | 32% | 971.2 hPa | - | - | - | - |
| 1777657703 | 21.11° C | 31% | 971.2 hPa | - | - | - | - |
| 1777656803 | 21.67° C | 31% | 971.1 hPa | - | - | - | - |
| 1777655903 | 21.67° C | 30% | 971.2 hPa | - | - | - | - |
| 1777654103 | 22.78° C | 30% | 971.4 hPa | - | - | - | - |
| 1777652303 | 21.67° C | 29% | 971.5 hPa | - | - | - | - |
| 1777651403 | 23.33° C | 28% | 971.7 hPa | - | - | - | - |
| 1777650502 | 20° C | 30% | 971.8 hPa | - | - | - | - |
| 1777649602 | 25° C | 30% | 971.9 hPa | - | - | - | - |
| 1777648702 | 25° C | 29% | 972 hPa | - | - | - | - |
| 1777647802 | 25° C | 29% | 972.2 hPa | - | - | - | - |
| 1777646902 | 25° C | 29% | 972.2 hPa | - | - | - | - |
| 1777646002 | 25° C | 30% | 972.3 hPa | - | - | - | - |
| 1777645102 | 25° C | 30% | 972.4 hPa | - | - | - | - |
| 1777644202 | 24.44° C | 30% | 972.6 hPa | - | - | - | - |
| 1777643302 | 24.44° C | 31% | 972.7 hPa | - | - | - | - |
| 1777642402 | 23.89° C | 31% | 972.7 hPa | - | - | - | - |
| 1777641502 | 23.33° C | 32% | 972.9 hPa | - | - | - | - |
| 1777640601 | 22.78° C | 31% | 972.9 hPa | - | - | - | - |
| 1777639701 | 21.67° C | 33% | 973.1 hPa | - | - | - | - |
| 1777638801 | 21.67° C | 32% | 973.3 hPa | - | - | - | - |
| 1777637901 | 21.11° C | 33% | 973.4 hPa | - | - | - | - |
* Rain since midnight (hover to see other rain measurements)
** Current wind speed in m/s (hover to see current wind gust speed)